Regional Weather Roundup
Issued by NWS

Home | Current Version | Previous Version | Text Only | Print | Product List | Glossary On
Versions: 1 2 3 4 5 6 7 8 9 10 11 12 13 14 15 16 17 18 19 20 21 22 23 24 25 26 27 28 29 30 31 32 33 34 35 36 37 38 39 40 41 42 43 44 45 46 47 48 49 50
000
ASUS43 KDTX 280510
RWRMI
MICHIGAN HOURLY REGIONAL WEATHER ROUNDUP
NATIONAL WEATHER SERVICE DETROIT/PONTIAC MI
100 AM EDT SUN AUG 28 2016

NOTE: "FAIR" INDICATES FEW OR NO CLOUDS BELOW 12,000 FEET WITH NO
SIGNIFICANT WEATHER AND/OR OBSTRUCTION TO VISIBILITY.

MIZ047>049-052>055-059>063-066>070-074>076-081>083-280600-
SOUTHEAST LOWER MICHIGAN

CITY           SKY/WX    TMP DP  RH WIND       PRES   REMARKS
ADRIAN         FOG       70  70 100 CALM      30.15R VSB 1/2
ALMA           MOCLDY    70  70 100 SW7       30.10S FOG
ANN ARBOR      CLOUDY    71  71 100 S5        30.13S FOG
BAD AXE        CLOUDY    68  68 100 S7        30.12S FOG
CARO           MOCLDY    69  69  99 S5        30.11S
DETROIT CITY   PTCLDY    72  72 100 CALM      30.13S
DETROIT        MOCLDY    71  70  96 SW5       30.14S FOG
FLINT          MOCLDY    74  69  85 S6        30.12S
GROSSE ILE     CLEAR     73  71  94 CALM      30.12S
HILLSDALE      MOCLDY    70  69  96 CALM      30.14S FOG
HOWELL         CLOUDY    72  71  96 S7        30.13S

CITY           SKY/WX    TMP DP  RH WIND       PRES   REMARKS
JACKSON        PTCLDY    71  71 100 S6        30.13S
LAMBERTVILLE   CLEAR     70  68  93 CALM      30.14R FOG
LANSING        CLEAR     72  69  90 S7        30.12S
LAPEER         CLOUDY    69  68  96 SE6       30.14R FOG
MASON          CLEAR     70  70 100 S5        30.12S FOG
MONROE           N/A     68  68 100 W9        30.13R FOG
MT. CLEMENS    MOCLDY    68  68 100 CALM      30.11F
PONTIAC        CLOUDY    72  69  90 SW7       30.13S
PORT HURON     FOG       64  64 100 CALM      30.14S VSB 1/4
TRI CITIES     MOCLDY    71  70  96 S8        30.10S FOG
MIDLAND        FAIR      70  70  99 S5        30.08F
TROY           CLOUDY    72  70  92 CALM      30.15S
SAGINAW HB     MOCLDY    70  68  94 S8        30.09F
$$
MIZ043>046-050>051-056>058-064>065-071>073-077>080-280600-
SOUTHWEST LOWER MICHIGAN

CITY           SKY/WX    TMP DP  RH WIND       PRES   REMARKS
BATTLE CREEK   CLEAR     70  70 100 S8        30.12S
BENTON HARBOR  CLOUDY    75  71  87 CALM      30.10R
BIG RAPIDS     CLOUDY    70  69  97 CALM      30.08S
COLDWATER      CLEAR     71  71 100 CALM      30.13S FOG
FREMONT        MOCLDY    71  70  97 W5        30.08S
HOLLAND        PTCLDY    75  72  90 SW8       30.09S
GRAND RAPIDS   MOCLDY    72  68  87 S5        30.09F
IONIA          MOCLDY    73  71  94 S7        30.09S
KALAMAZOO      CLEAR     74  70  87 S3        30.11S
LUDINGTON      CLOUDY    70  70 100 NW5       30.07R FOG
MARSHALL       CLEAR     72  72 100 CALM      30.12S
MOUNT PLEASANT CLOUDY    70  69  96 S3        30.08S
MUSKEGON       MOCLDY    76  72  87 SW6       30.08R
SOUTH HAVEN    PTCLDY    76  74  95 S3        30.09S
$$
MIZ016>042-280600-
NORTHERN LOWER MICHIGAN

CITY           SKY/WX    TMP DP  RH WIND       PRES   REMARKS
ALPENA         MOCLDY    69  66  90 S3        30.07S
BEAVER ISLAND  MOCLDY    64  64 100 SW5       30.04S
BELLAIRE       CLOUDY    71  68  90 CALM      30.05S
CADILLAC       MOCLDY    68  67  96 SW6       30.08S
CHARLEVOIX     CLOUDY    69  69 100 CALM      30.07S
FRANKFORT      CLOUDY    69  67  94 CALM      30.07R FOG
GAYLORD        CLOUDY    70  65  84 S9        30.08S
GRAYLING       CLOUDY    69  68  96 S3        30.09S
HARBOR SPRINGS DRIZZLE   68  67  96 CALM      30.04S
HOUGHTON LAKE  PTCLDY    69  67  93 S6        30.10R
MANISTEE       CLOUDY    70  69  97 SW3       30.07R FOG
OSCODA         CLOUDY    71  70  97 S6        30.08S
PELLSTON       LGT RAIN  67  65  93 CALM      30.04F FOG
ROGERS CITY    CLOUDY    69  66  91 S7        30.06F
TRAVERSE CITY  MOCLDY    71  68  90 SW3       30.05S
$$
MIZ007>008-015-280600-
EASTERN UPPER MICHIGAN

CITY           SKY/WX    TMP DP  RH WIND       PRES   REMARKS
KINROSS        CLOUDY    67  66  97 S9        30.04F
MACKINAC ISLAN HVY RAIN  67  67 100 S8        30.04S
NEWBERRY       CLOUDY    63  62  97 W3        30.04R
S. S. MARIE    CLOUDY    66  65  96 SE6       30.03F
$$
MIZ004>006-011>014-085-280600-
CENTRAL UPPER MICHIGAN

CITY           SKY/WX    TMP DP  RH WIND       PRES   REMARKS
MANISTIQUE     CLOUDY    63  61  93 CALM      30.04F FOG
ESCANABA       CLOUDY    63  62  97 W5        30.06R
MENOMINEE      CLOUDY   N/A N/A N/A VRB3      30.08
SAWYER-GWINN   CLOUDY    61  59  92 SW6       30.07S
$$
MIZ001>003-009>011-084-280600-
WESTERN UPPER MICHIGAN

CITY           SKY/WX    TMP DP  RH WIND       PRES   REMARKS
IRON MOUNTAIN  CLOUDY    63  58  83 CALM      30.07S
HOUGHTON       CLOUDY    62  60  93 CALM      30.05S
IRONWOOD       CLOUDY    60  60 100 CALM      30.07S
$$

ABBREVIATIONS USED IN REMARKS
   TC - TEMPERATURE IN CELSIUS
  WCI - WIND CHILL INDEX
   HX - HEAT INDEX
  VSB - VISIBILITY




USA.gov is the U.S. government's official web portal to all federal, state and local government web resources and services.